DL9BGG-13 Weather Reports


time (UTC)temp
F
wind
direction
speed
knots
gust
knots
rain 1hr
in
rain 24hr
in
rain mn
in
humidity
%
barometer
mb
20260902022755 56 180 0.0 0.0 0.00 0.12 0.00 92 1063.2
20260902022650 56 180 0.0 0.0 0.00 0.12 0.00 92 1063.2
20260902022530 57 180 1.7 0.0 0.00 0.12 0.00 92 1063.2
20260902022424 57 180 0.0 0.0 0.00 0.12 0.00 92 1063.2
20260902022311 57 180 2.6 0.0 0.00 0.12 0.00 92 1063.3
20260902022206 57 180 0.0 0.0 0.00 0.12 0.00 92 1063.2
20260902022101 57 180 0.0 0.0 0.00 0.12 0.00 92 1063.2
20260902021940 57 202 1.7 0.0 0.00 0.12 0.00 92 1063.2
20260902021837 57 202 0.0 0.0 0.00 0.12 0.00 92 1063.2
20260902021729 57 202 0.0 0.0 0.00 0.12 0.00 92 1063.3
20260902021616 57 202 0.0 0.0 0.00 0.12 0.00 92 1063.3
20260902021454 57 202 0.0 0.0 0.00 0.12 0.00 92 1063.3
20260902021334 57 225 0.0 0.0 0.00 0.12 0.00 92 1063.3
20260902021220 57 180 3.5 0.0 0.00 0.12 0.00 92 1063.3
20260902021100 57 180 0.0 0.0 0.00 0.12 0.00 92 1063.3
20260902020946 57 202 0.0 0.0 0.00 0.12 0.00 92 1063.4
20260902020827 57 180 0.0 0.0 0.00 0.12 0.00 92 1063.3
20260902020712 57 202 0.0 0.0 0.00 0.12 0.00 92 1063.3
20260902020550 57 202 0.0 0.0 0.00 0.12 0.00 92 1063.3
20260902020430 57 202 0.0 0.0 0.00 0.12 0.00 92 1063.3
20260902020309 57 180 3.5 0.0 0.00 0.12 0.00 92 1063.3
20260902020155 57 202 0.0 0.0 0.00 0.12 0.00 92 1063.3
20260902020034 57 202 0.0 0.0 0.00 0.12 0.00 92 1063.2
20260902015921 57 202 1.7 0.0 0.00 0.12 0.00 92 1063.3
20260902015808 57 202 3.5 0.0 0.00 0.12 0.00 92 1063.2
20260902015646 57 180 0.0 0.0 0.00 0.12 0.00 92 1063.2
20260902015528 57 180 5.2 0.0 0.00 0.12 0.00 92 1063.2
20260902015422 57 202 0.0 0.0 0.00 0.12 0.00 92 1063.3
20260902015315 57 180 0.0 0.0 0.00 0.12 0.00 92 1063.3
20260902015156 56 180 0.0 0.0 0.00 0.12 0.00 92 1063.3
20260902015049 57 180 0.0 0.0 0.00 0.12 0.00 92 1063.3
20260902014930 56 202 0.0 0.0 0.00 0.12 0.00 92 1063.3
20260902014825 56 225 0.0 0.0 0.00 0.12 0.00 92 1063.3
20260902014720 56 180 0.0 0.0 0.00 0.12 0.00 92 1063.3
20260902014612 56 202 1.7 0.0 0.00 0.12 0.00 92 1063.2
20260902014453 56 180 1.7 0.0 0.00 0.12 0.00 92 1063.3
20260902014346 56 180 2.6 0.0 0.00 0.12 0.00 92 1063.3
20260902014234 56 225 0.0 0.0 0.00 0.12 0.00 92 1063.3
20260902014112 56 180 0.0 0.0 0.00 0.12 0.00 92 1063.3
20260902013959 56 180 0.0 0.0 0.00 0.12 0.00 92 1063.2
20260902013846 56 202 3.5 0.0 0.00 0.12 0.00 92 1063.3
20260902013734 56 225 2.6 0.0 0.00 0.12 0.00 92 1063.3
20260902013612 56 202 0.0 0.0 0.00 0.12 0.00 92 1063.3
20260902013458 56 202 0.0 0.0 0.00 0.12 0.00 92 1063.3
20260902013345 56 202 0.0 0.0 0.00 0.12 0.00 92 1063.3
20260902013232 56 202 0.0 0.0 0.00 0.12 0.00 92 1063.3
20260902013120 56 202 0.0 0.0 0.00 0.12 0.00 92 1063.3
20260902013015 56 202 0.0 0.0 0.00 0.12 0.00 92 1063.3
20260902012908 56 180 0.0 0.0 0.00 0.12 0.00 92 1063.1
20260902012748 56 202 0.0 0.0 0.00 0.12 0.00 92 1063.2
20260902012627 56 180 0.0 0.0 0.00 0.12 0.00 92 1063.3
20260902012513 56 180 0.0 0.0 0.00 0.12 0.00 92 1063.3
20260902012346 56 180 0.0 0.0 0.00 0.12 0.00 92 1063.2
20260902012239 56 180 0.0 0.0 0.00 0.12 0.00 92 1063.3
20260902012126 56 180 0.0 0.0 0.00 0.12 0.00 91 1063.3
20260902012005 56 202 0.0 0.0 0.00 0.12 0.00 92 1063.3
20260902011852 56 202 0.0 0.0 0.00 0.12 0.00 91 1063.3
20260902011730 56 180 1.7 0.0 0.00 0.12 0.00 91 1063.3
20260902011610 56 202 0.0 0.0 0.00 0.12 0.00 91 1063.3
20260902011505 56 202 1.7 0.0 0.00 0.12 0.00 91 1063.3
20260902011359 56 180 3.5 0.0 0.00 0.12 0.00 91 1063.3
20260902011246 56 180 0.0 0.0 0.00 0.12 0.00 91 1063.3
20260902011126 56 180 0.0 0.0 0.00 0.12 0.00 91 1063.3
20260902011006 56 180 0.0 0.0 0.00 0.12 0.00 91 1063.3
20260902010858 56 202 4.3 0.0 0.00 0.12 0.00 91 1063.3
20260902010745 56 202 0.0 0.0 0.00 0.12 0.00 91 1063.3
20260902010616 56 202 2.6 0.0 0.00 0.12 0.00 91 1063.4
20260902010447 56 202 0.0 0.0 0.00 0.12 0.00 91 1063.3
20260902010325 56 202 1.7 0.0 0.00 0.12 0.00 91 1063.4
20260902005954 55 202 0.0 0.0 0.00 0.12 0.00 91 1063.4
20260902005840 55 202 0.0 0.0 0.00 0.12 0.00 91 1063.4
20260902005721 55 225 0.0 0.0 0.00 0.12 0.00 91 1063.4
20260902005614 55 180 0.0 0.0 0.00 0.12 0.00 91 1063.4
20260902005454 55 202 0.0 0.0 0.00 0.12 0.00 91 1063.4
20260902005340 55 202 0.0 0.0 0.00 0.12 0.00 91 1063.4
20260902005210 55 180 0.0 0.0 0.00 0.12 0.00 91 1063.4
20260902005044 55 180 0.0 0.0 0.00 0.12 0.00 91 1063.4
20260902004936 55 202 0.0 0.0 0.00 0.12 0.00 91 1063.4
20260902004807 55 180 0.0 0.0 0.00 0.12 0.00 91 1063.4
20260902004653 55 180 0.0 0.0 0.00 0.12 0.00 91 1063.4
20260902004541 55 202 3.5 0.0 0.00 0.12 0.00 91 1063.4
20260902004427 55 180 0.0 0.0 0.00 0.12 0.00 91 1063.3
20260902004258 55 180 0.0 0.0 0.00 0.12 0.00 90 1063.3
20260902004152 55 202 0.0 0.0 0.00 0.12 0.00 90 1063.4
20260902004030 55 225 0.0 0.0 0.00 0.12 0.00 90 1063.4
20260902003915 55 225 0.0 0.0 0.00 0.12 0.00 90 1063.4
20260902003801 55 225 0.0 0.0 0.00 0.12 0.00 90 1063.4
20260902003655 55 225 0.0 0.0 0.00 0.12 0.00 90 1063.5
20260902003542 55 225 0.0 0.0 0.00 0.12 0.00 90 1063.4
20260902003437 55 225 0.0 0.0 0.00 0.12 0.00 90 1063.4
20260902003320 55 225 0.0 0.0 0.00 0.12 0.00 90 1063.4
20260902003209 55 225 0.0 0.0 0.00 0.12 0.00 90 1063.5
20260902003100 55 225 0.0 0.0 0.00 0.12 0.00 90 1063.4
20260902002946 55 225 0.0 0.0 0.00 0.12 0.00 90 1063.5
20260902002834 55 225 0.0 0.0 0.00 0.12 0.00 90 1063.4
20260902002725 55 225 0.0 0.0 0.00 0.12 0.00 90 1063.4
20260902002606 55 225 0.0 0.0 0.00 0.12 0.00 90 1063.4
20260902002458 55 247 0.0 0.0 0.00 0.12 0.00 90 1063.4
20260902002353 55 247 0.0 0.0 0.00 0.12 0.00 90 1063.5
20260902002246 55 247 0.0 0.0 0.00 0.12 0.00 90 1063.4
20260902002131 55 247 0.0 0.0 0.00 0.12 0.00 90 1063.4
20260902002025 55 225 0.0 0.0 0.00 0.12 0.00 90 1063.5
20260902001910 55 202 0.0 0.0 0.00 0.12 0.00 90 1063.4
20260902001749 55 202 0.0 0.0 0.00 0.12 0.00 90 1063.4
20260902001626 55 202 0.0 0.0 0.00 0.12 0.00 90 1063.4
20260902001507 55 202 0.0 0.0 0.00 0.12 0.00 90 1063.4
20260902001403 55 202 0.0 0.0 0.00 0.12 0.00 90 1063.4
20260902001256 55 180 0.0 0.0 0.00 0.12 0.00 90 1063.4
20260902001145 55 180 0.0 0.0 0.00 0.12 0.00 90 1063.4
20260902001038 55 180 0.0 0.0 0.00 0.12 0.00 90 1063.4
20260902000920 55 202 0.0 0.0 0.00 0.12 0.00 90 1063.4
20260902000812 55 180 0.0 0.0 0.00 0.12 0.00 90 1063.4
20260902000643 55 180 0.0 0.0 0.00 0.12 0.00 90 1063.4
20260902000524 55 202 0.0 0.0 0.00 0.12 0.00 90 1063.5
20260902000416 56 202 0.0 0.0 0.00 0.12 0.00 90 1063.4
20260902000304 56 202 0.0 0.0 0.00 0.12 0.00 90 1063.4
20260902000147 56 202 0.0 0.0 0.00 0.12 0.00 90 1063.4
20260902000030 56 180 0.0 0.0 0.00 0.12 0.00 90 1063.5
20260901235921 56 180 0.0 0.0 0.00 0.12 0.00 90 1063.5
20260901235806 56 180 0.0 0.0 0.00 0.12 0.00 90 1063.5
20260901235636 56 180 0.0 0.0 0.00 0.12 0.00 90 1063.5
20260901235522 56 180 0.0 0.0 0.00 0.12 0.00 90 1063.4
20260901235416 56 180 0.0 0.0 0.00 0.12 0.00 90 1063.5
20260901235309 56 202 3.5 0.0 0.00 0.12 0.00 90 1063.5
20260901235157 56 180 0.0 0.0 0.00 0.12 0.00 90 1063.5
20260901235043 56 180 1.7 0.0 0.00 0.12 0.00 90 1063.4
20260901234935 56 202 0.0 0.0 0.00 0.12 0.00 90 1063.5
20260901234813 56 202 0.0 0.0 0.00 0.12 0.00 90 1063.5
20260901234706 56 180 0.0 0.0 0.00 0.12 0.00 89 1063.5
20260901234536 56 202 0.0 0.0 0.00 0.12 0.00 89 1063.5
20260901234422 56 180 0.0 0.0 0.00 0.12 0.00 89 1063.5
20260901234316 56 202 0.0 0.0 0.00 0.12 0.00 89 1063.5
20260901234155 56 202 0.0 0.0 0.00 0.12 0.00 89 1063.4
20260901234043 56 202 0.0 0.0 0.00 0.12 0.00 89 1063.4
20260901233929 56 202 0.0 0.0 0.00 0.12 0.00 89 1063.4
20260901233817 56 202 0.0 0.0 0.00 0.12 0.00 89 1063.4
20260901233712 56 202 0.0 0.0 0.00 0.12 0.00 89 1063.3
20260901233607 56 202 0.0 0.0 0.00 0.12 0.00 89 1063.4
20260901233459 56 202 1.7 0.0 0.00 0.12 0.00 89 1063.4
20260901233339 57 202 4.3 0.0 0.00 0.12 0.00 89 1063.4
20260901233226 57 202 0.0 0.0 0.00 0.12 0.00 89 1063.5
20260901233113 57 202 0.0 0.0 0.00 0.12 0.00 89 1063.4
20260901233001 57 202 0.0 0.0 0.00 0.12 0.00 89 1063.5
20260901232847 57 180 0.0 0.0 0.00 0.12 0.00 89 1063.5
20260901232742 57 180 0.0 0.0 0.00 0.12 0.00 89 1063.6
20260901232628 57 180 0.0 0.0 0.00 0.12 0.00 89 1063.5
20260901232510 57 180 0.0 0.0 0.00 0.12 0.00 89 1063.5
20260901232354 57 180 0.0 0.0 0.00 0.12 0.00 89 1063.5
20260901232240 57 180 4.3 0.0 0.00 0.12 0.00 89 1063.5
20260901232122 57 157 0.0 0.0 0.00 0.12 0.00 89 1063.5
20260901232016 57 157 2.6 0.0 0.00 0.12 0.00 89 1063.5
20260901231902 57 157 3.5 0.0 0.00 0.12 0.00 88 1063.5
20260901231759 57 157 3.5 0.0 0.00 0.12 0.00 88 1063.5
20260901231653 57 180 0.0 0.0 0.00 0.12 0.00 89 1063.5
20260901231533 57 157 0.0 0.0 0.00 0.12 0.00 88 1063.4
20260901231410 57 180 0.0 0.0 0.00 0.12 0.00 88 1063.5
20260901231250 57 180 0.0 0.0 0.00 0.12 0.00 88 1063.6
20260901231118 57 180 0.0 0.0 0.00 0.12 0.00 88 1063.6
20260901231013 57 180 0.0 0.0 0.00 0.12 0.00 88 1063.6
20260901230852 57 180 0.0 0.0 0.00 0.12 0.00 88 1063.6
20260901230731 58 180 0.0 0.0 0.00 0.12 0.00 88 1063.6
20260901230626 58 180 0.0 0.0 0.00 0.12 0.00 88 1063.5
20260901230520 58 180 0.0 0.0 0.00 0.12 0.00 88 1063.5
20260901230407 58 202 0.0 0.0 0.00 0.12 0.00 88 1063.6
20260901230238 58 225 0.0 0.0 0.00 0.12 0.00 88 1063.7
20260901230126 58 202 1.7 0.0 0.00 0.12 0.00 88 1063.7
20260901230011 58 180 0.0 0.0 0.00 0.12 0.00 88 1063.7
20260901225858 58 180 0.0 0.0 0.00 0.14 0.00 88 1063.7
20260901225746 58 202 0.0 0.0 0.00 0.14 0.00 88 1063.7
20260901225624 58 202 0.0 0.0 0.00 0.14 0.00 88 1063.6
20260901225513 58 202 5.2 0.0 0.00 0.14 0.00 88 1063.7
20260901225358 58 180 5.2 0.0 0.00 0.14 0.00 88 1063.7
20260901225245 58 225 0.0 0.0 0.00 0.14 0.00 88 1063.7
20260901225139 58 180 0.0 0.0 0.00 0.14 0.00 88 1063.7
20260901225027 58 202 3.5 0.0 0.00 0.14 0.00 88 1063.9
20260901224916 58 202 0.0 0.0 0.00 0.14 0.00 88 1063.8
20260901224809 59 202 0.0 0.0 0.00 0.14 0.00 88 1063.8
20260901224655 59 180 0.0 0.0 0.00 0.14 0.00 88 1063.8
20260901224544 59 202 0.0 0.0 0.00 0.14 0.00 88 1063.8
20260901224437 59 247 0.0 0.0 0.00 0.14 0.00 88 1063.8
20260901224316 59 202 0.0 0.0 0.00 0.14 0.00 88 1063.8
20260901224205 59 202 0.0 0.0 0.00 0.14 0.00 88 1063.8
20260901224058 59 202 1.7 0.0 0.00 0.14 0.00 88 1063.8
20260901223945 59 202 0.9 0.0 0.00 0.14 0.00 88 1063.8
20260901223823 59 270 0.0 0.0 0.00 0.14 0.00 88 1063.8
20260901223711 59 247 0.0 0.0 0.00 0.14 0.00 88 1063.9
20260901223549 59 202 0.0 0.0 0.00 0.14 0.00 88 1063.9
20260901223427 59 202 0.0 0.0 0.00 0.14 0.00 88 1063.9
20260901223257 59 225 0.0 0.0 0.00 0.14 0.00 88 1064.0
20260901223147 59 247 5.2 0.0 0.00 0.14 0.00 88 1063.9
20260901223040 59 225 4.3 0.0 0.00 0.14 0.00 88 1063.9
20260901222927 59 225 0.0 0.0 0.00 0.14 0.00 88 1063.9
20260901222813 59 180 0.0 0.0 0.00 0.14 0.00 88 1063.8
20260901222652 59 225 0.0 0.0 0.00 0.14 0.00 88 1063.9
20260901222533 59 270 0.0 0.0 0.00 0.14 0.00 88 1063.8
20260901222429 59 247 3.5 0.0 0.00 0.14 0.00 88 1063.9
20260901222324 59 202 4.3 0.0 0.00 0.14 0.00 87 1063.9
20260901222216 59 225 5.2 0.0 0.00 0.14 0.00 87 1063.9
20260901222104 59 225 2.6 0.0 0.00 0.14 0.00 87 1063.9
20260901221951 59 225 4.3 0.0 0.00 0.14 0.00 87 1063.9
20260901221846 59 225 0.9 0.0 0.00 0.14 0.00 87 1063.9
20260901221740 59 225 3.5 0.0 0.00 0.14 0.00 87 1063.9
20260901221629 59 225 0.0 0.0 0.00 0.14 0.00 87 1064.0
20260901221514 59 270 0.0 0.0 0.00 0.14 0.00 87 1064.0
20260901221354 59 225 5.2 0.0 0.00 0.14 0.00 87 1063.9
20260901221247 59 225 0.0 0.0 0.00 0.14 0.00 87 1063.9
20260901221127 59 225 0.0 0.0 0.00 0.14 0.00 87 1063.9
20260901221005 59 247 0.0 0.0 0.00 0.14 0.00 87 1063.9
20260901220844 60 225 0.0 0.0 0.00 0.14 0.00 87 1063.9
20260901220731 60 225 0.0 0.0 0.00 0.14 0.00 87 1064.0
20260901220602 60 247 0.0 0.0 0.00 0.14 0.00 87 1064.0
20260901220448 60 247 0.0 0.0 0.00 0.14 0.00 87 1064.0
20260901220336 60 270 2.6 0.0 0.00 0.14 0.00 87 1064.0
20260901220230 60 247 0.0 0.0 0.00 0.14 0.00 87 1064.1
20260901220101 60 270 4.3 0.0 0.00 0.14 0.00 87 1064.1
20260901215948 60 270 3.5 0.0 0.00 0.14 0.00 87 1064.1
20260901215829 60 247 0.0 0.0 0.00 0.14 0.00 87 1064.1
20260901215714 60 247 0.0 0.0 0.00 0.14 0.00 87 1064.1
20260901215608 60 225 0.0 0.0 0.00 0.14 0.00 87 1064.1
20260901215458 60 247 0.0 0.0 0.00 0.14 0.00 87 1064.1
20260901215349 60 270 0.0 0.0 0.00 0.14 0.00 87 1064.1
20260901215231 60 292 0.0 0.0 0.00 0.14 0.00 87 1064.2
20260901215126 60 270 4.3 0.0 0.00 0.14 0.00 87 1064.1
20260901215018 60 270 4.3 0.0 0.00 0.14 0.00 87 1064.1
20260901214858 60 247 0.0 0.0 0.00 0.14 0.00 87 1064.1
20260901214753 60 247 4.3 0.0 0.00 0.14 0.00 87 1064.2
20260901214641 60 270 5.2 0.0 0.00 0.14 0.00 87 1064.2
20260901214537 60 270 3.5 0.0 0.00 0.14 0.00 87 1064.1
20260901214432 60 247 2.6 0.0 0.00 0.14 0.00 87 1064.2
20260901214327 60 225 2.6 0.0 0.00 0.14 0.00 87 1064.2
20260901214219 60 247 5.2 0.0 0.00 0.14 0.00 87 1064.3
20260901214059 60 270 2.6 0.0 0.00 0.14 0.00 87 1064.2
20260901213946 60 292 0.0 0.0 0.00 0.14 0.00 87 1064.3
20260901213832 60 270 1.7 0.0 0.00 0.14 0.00 87 1064.3
20260901213713 60 270 4.3 0.0 0.00 0.14 0.00 87 1064.3
20260901213605 60 270 6.1 0.0 0.00 0.14 0.00 87 1064.2
20260901213454 60 292 5.2 0.0 0.00 0.14 0.00 87 1064.2
20260901213348 60 247 5.2 0.0 0.00 0.14 0.00 87 1064.2
20260901213243 60 270 3.5 0.0 0.00 0.14 0.00 87 1064.2
20260901213130 60 225 2.6 0.0 0.00 0.14 0.00 87 1064.1
20260901213009 60 202 3.5 0.0 0.00 0.14 0.00 87 1064.2
20260901212855 60 292 3.5 0.0 0.00 0.14 0.00 87 1064.2
20260901212728 60 247 5.2 0.0 0.00 0.14 0.00 87 1064.2
20260901212621 60 247 3.5 0.0 0.00 0.14 0.00 87 1064.2
20260901212507 60 270 0.0 0.0 0.00 0.14 0.00 87 1064.2
20260901212354 60 270 2.6 0.0 0.00 0.14 0.00 87 1064.2
20260901212242 60 225 8.7 0.0 0.00 0.14 0.00 87 1064.3
20260901212129 60 270 3.5 0.0 0.00 0.14 0.00 87 1064.2
20260901212016 60 247 0.0 0.0 0.00 0.14 0.00 87 1064.2
20260901211910 60 270 0.0 0.0 0.00 0.14 0.00 87 1064.3
20260901211759 60 247 5.2 0.0 0.00 0.14 0.00 87 1064.2
20260901211652 60 247 6.1 0.0 0.00 0.14 0.00 87 1064.2
20260901211531 60 270 0.0 0.0 0.00 0.14 0.00 87 1064.2
20260901211410 60 225 4.3 0.0 0.00 0.14 0.00 87 1064.3
20260901211258 60 270 5.2 0.0 0.00 0.14 0.00 87 1064.2
20260901211153 60 247 4.3 0.0 0.00 0.14 0.00 87 1064.2
20260901211047 60 202 1.7 0.0 0.00 0.14 0.00 87 1064.2
20260901210925 60 247 4.3 0.0 0.00 0.14 0.00 86 1064.2
20260901210813 60 247 4.3 0.0 0.00 0.14 0.00 86 1064.3
20260901210702 60 247 0.0 0.0 0.00 0.14 0.00 86 1064.2
20260901210556 60 270 2.6 0.0 0.00 0.14 0.00 86 1064.3
20260901210449 60 225 4.3 0.0 0.00 0.14 0.00 86 1064.3
20260901210337 60 270 2.6 0.0 0.00 0.14 0.00 86 1064.3
20260901210231 60 270 3.5 0.0 0.00 0.14 0.00 86 1064.3
20260901210118 60 247 5.2 0.0 0.00 0.14 0.00 86 1064.3
20260901210013 60 270 0.0 0.0 0.00 0.14 0.00 86 1064.3
20260901205859 60 270 3.5 0.0 0.00 0.14 0.00 86 1064.2
20260901205739 60 270 0.0 0.0 0.00 0.14 0.00 86 1064.2
20260901205626 60 270 3.5 0.0 0.00 0.14 0.00 86 1064.2
20260901205514 60 270 5.2 0.0 0.00 0.14 0.00 86 1064.2
20260901205407 60 247 3.5 0.0 0.00 0.14 0.00 87 1064.2
20260901205246 60 225 1.7 0.0 0.00 0.14 0.00 87 1064.2
20260901205124 60 202 2.6 0.0 0.00 0.14 0.00 87 1064.2
20260901205004 60 270 3.5 0.0 0.00 0.14 0.00 87 1064.2
20260901204851 60 247 5.2 0.0 0.00 0.14 0.00 86 1064.2
20260901204745 60 270 0.0 0.0 0.00 0.14 0.00 86 1064.3
20260901204624 60 247 0.0 0.0 0.00 0.14 0.00 86 1064.2
20260901204503 60 270 3.5 0.0 0.00 0.14 0.00 86 1064.2
20260901204344 60 270 0.0 0.0 0.00 0.14 0.00 86 1064.3
20260901204229 60 247 4.3 0.0 0.00 0.14 0.00 86 1064.3
20260901204116 60 202 4.3 0.0 0.00 0.14 0.00 86 1064.2
20260901204011 60 270 2.6 0.0 0.00 0.14 0.00 86 1064.2
20260901203851 60 247 0.0 0.0 0.00 0.14 0.00 86 1064.2
20260901203737 60 270 0.0 0.0 0.00 0.14 0.00 86 1064.2
20260901203634 60 202 4.3 0.0 0.00 0.14 0.00 86 1064.1
20260901203526 60 180 0.0 0.0 0.00 0.14 0.00 86 1064.1
20260901203413 60 270 0.0 0.0 0.00 0.14 0.00 86 1064.1
20260901203308 60 270 0.0 0.0 0.00 0.14 0.00 87 1064.2
20260901203139 60 292 2.6 0.0 0.00 0.14 0.00 87 1064.2
20260901203026 60 270 3.5 0.0 0.00 0.14 0.00 87 1064.2
20260901202921 60 292 3.5 0.0 0.00 0.14 0.00 87 1064.1
20260901202808 60 292 2.6 0.0 0.00 0.14 0.00 87 1064.2
20260901202638 60 247 1.7 0.0 0.00 0.14 0.00 87 1064.2
20260901202525 60 270 0.0 0.0 0.00 0.14 0.00 87 1064.1
20260901202414 60 270 3.5 0.0 0.00 0.14 0.00 87 1064.2
20260901202306 60 247 1.7 0.0 0.00 0.14 0.00 87 1064.1
20260901202145 60 247 2.6 0.0 0.00 0.14 0.00 87 1064.1
20260901202018 60 247 0.0 0.0 0.00 0.14 0.00 87 1064.1
20260901201912 60 247 5.2 0.0 0.00 0.14 0.00 87 1064.1
20260901201807 60 270 0.0 0.0 0.00 0.14 0.00 87 1064.1
20260901201654 60 270 5.2 0.0 0.00 0.14 0.00 87 1064.1
20260901201548 60 292 1.7 0.0 0.00 0.14 0.00 87 1064.1
20260901201443 60 247 5.2 0.0 0.00 0.14 0.00 87 1064.1
20260901201322 60 270 0.0 0.0 0.00 0.14 0.00 87 1064.1
20260901201208 60 225 4.3 0.0 0.00 0.14 0.00 87 1064.1
20260901201047 60 247 0.0 0.0 0.00 0.14 0.00 86 1064.1
20260901200934 60 270 0.0 0.0 0.00 0.14 0.00 86 1064.1
20260901200814 60 247 0.0 0.0 0.00 0.14 0.00 86 1064.1
20260901200708 60 247 0.0 0.0 0.00 0.14 0.00 86 1064.1
20260901200547 60 247 0.0 0.0 0.00 0.14 0.00 86 1064.1
20260901200434 60 247 0.0 0.0 0.00 0.14 0.00 86 1064.0
20260901200321 60 270 0.0 0.0 0.00 0.14 0.00 86 1064.0
20260901200159 60 247 0.0 0.0 0.00 0.14 0.00 86 1064.0
20260901200046 60 247 0.0 0.0 0.00 0.14 0.00 86 1064.0
20260901195935 60 225 4.3 0.0 0.00 0.14 0.00 86 1064.0
20260901195829 60 247 0.0 0.0 0.00 0.14 0.00 86 1064.0
20260901195723 60 247 0.0 0.0 0.00 0.14 0.00 86 1064.0
20260901195610 60 247 0.0 0.0 0.00 0.14 0.00 86 1064.0
20260901195505 60 270 0.0 0.0 0.00 0.14 0.00 86 1063.9
20260901195354 60 247 3.5 0.0 0.00 0.14 0.00 86 1064.0
20260901195247 60 292 0.0 0.0 0.00 0.14 0.00 86 1064.0
20260901195134 60 270 3.5 0.0 0.00 0.14 0.00 86 1063.9
20260901195021 60 270 0.0 0.0 0.00 0.14 0.00 86 1063.9
20260901194859 60 247 1.7 0.0 0.00 0.14 0.00 85 1063.9
20260901194738 61 270 0.0 0.0 0.00 0.14 0.00 85 1063.9
20260901194630 61 270 0.0 0.0 0.00 0.14 0.00 85 1063.9
20260901194509 61 270 2.6 0.0 0.00 0.14 0.00 85 1064.0
20260901194356 61 270 1.7 0.0 0.00 0.14 0.00 85 1063.9
20260901194250 61 270 0.0 0.0 0.00 0.14 0.00 84 1064.0
20260901194136 61 270 0.0 0.0 0.00 0.14 0.00 84 1063.9
20260901194029 61 292 2.6 0.0 0.00 0.14 0.00 84 1064.0
20260901193853 61 247 3.5 0.0 0.00 0.14 0.00 84 1063.9
20260901193746 61 247 0.0 0.0 0.00 0.14 0.00 84 1064.0
20260901193625 61 270 0.0 0.0 0.00 0.14 0.00 84 1063.9
20260901193504 61 270 0.0 0.0 0.00 0.14 0.00 84 1063.9
20260901193335 61 292 0.0 0.0 0.00 0.14 0.00 84 1063.9
20260901193222 61 292 0.0 0.0 0.00 0.14 0.00 84 1063.9
20260901193116 61 270 1.7 0.0 0.00 0.14 0.00 83 1063.9
20260901193010 62 270 0.0 0.0 0.00 0.14 0.00 83 1063.9
20260901192841 62 270 0.0 0.0 0.00 0.14 0.00 83 1063.9
20260901192728 62 292 4.3 0.0 0.00 0.14 0.00 83 1063.9
20260901192614 62 247 4.3 0.0 0.00 0.14 0.00 83 1063.9
20260901192454 62 292 0.0 0.0 0.00 0.14 0.00 83 1063.9
20260901192348 62 270 3.5 0.0 0.00 0.14 0.00 83 1063.9
20260901192235 62 247 0.0 0.0 0.00 0.14 0.00 83 1063.9
20260901192130 62 270 2.6 0.0 0.00 0.14 0.00 82 1063.9
20260901192011 62 315 3.5 0.0 0.00 0.14 0.00 82 1063.9
20260901191906 62 337 0.0 0.0 0.00 0.14 0.00 82 1063.9
20260901191759 62 270 0.0 0.0 0.00 0.14 0.00 82 1063.9
20260901191638 62 337 4.3 0.0 0.00 0.14 0.00 82 1063.9
20260901191533 62 270 0.0 0.0 0.00 0.14 0.00 82 1063.9
20260901191421 62 270 0.0 0.0 0.00 0.14 0.00 82 1063.9
20260901191316 62 292 0.0 0.0 0.00 0.14 0.00 82 1063.9
20260901191201 62 247 0.0 0.0 0.00 0.14 0.00 82 1063.9
20260901191040 62 292 5.2 0.0 0.00 0.14 0.00 82 1063.9
20260901190919 62 270 0.0 0.0 0.00 0.14 0.00 82 1063.9
20260901190808 62 270 0.0 0.0 0.00 0.14 0.00 82 1063.9
20260901190701 62 247 2.6 0.0 0.00 0.14 0.00 81 1063.9
20260901190558 62 270 0.0 0.0 0.00 0.14 0.00 81 1063.9
20260901190451 62 270 1.7 0.0 0.00 0.14 0.00 81 1063.9
20260901190321 62 292 0.0 0.0 0.00 0.14 0.00 81 1063.9
20260901190208 62 270 0.0 0.0 0.00 0.14 0.00 81 1063.9
20260901190055 62 270 0.0 0.0 0.00 0.14 0.00 81 1063.9
20260901185951 62 270 2.6 0.0 0.00 0.18 0.00 80 1064.0
20260901185845 62 292 3.5 0.0 0.00 0.18 0.00 80 1063.9
20260901185733 62 270 5.2 0.0 0.00 0.18 0.00 80 1063.9
20260901185627 62 247 6.1 0.0 0.00 0.18 0.00 80 1063.9
20260901185514 62 270 2.6 0.0 0.00 0.18 0.00 80 1063.9
20260901185402 62 292 2.6 0.0 0.00 0.18 0.00 80 1063.9
20260901185257 62 292 1.7 0.0 0.00 0.18 0.00 80 1063.8
20260901185153 62 270 3.5 0.0 0.00 0.18 0.00 80 1063.9
20260901185046 63 270 2.6 0.0 0.00 0.18 0.00 80 1063.9
20260901184934 63 292 2.6 0.0 0.00 0.18 0.00 80 1063.8
20260901184828 63 270 4.3 0.0 0.00 0.18 0.00 79 1063.9
20260901184723 63 270 4.3 0.0 0.00 0.18 0.00 79 1063.9
20260901184616 63 270 2.6 0.0 0.00 0.18 0.00 79 1063.9
20260901184511 63 292 0.0 0.0 0.00 0.18 0.00 79 1063.9
20260901184405 63 270 2.6 0.0 0.00 0.18 0.00 78 1063.9
20260901184259 63 315 5.2 0.0 0.00 0.18 0.00 78 1063.9
20260901184152 63 315 4.3 0.0 0.00 0.18 0.00 78 1063.9
20260901184037 63 292 3.5 0.0 0.00 0.18 0.00 78 1063.9
20260901183915 63 270 0.0 0.0 0.00 0.18 0.00 78 1063.9
20260901183801 63 315 6.1 0.0 0.00 0.18 0.00 78 1063.9
20260901183654 63 292 0.0 0.0 0.00 0.18 0.00 78 1063.9
20260901183533 63 270 4.3 0.0 0.00 0.18 0.00 78 1063.9
20260901183411 63 292 5.2 0.0 0.00 0.18 0.00 78 1063.8
20260901183305 63 270 4.3 0.0 0.00 0.18 0.00 78 1063.8
20260901183159 63 270 3.5 0.0 0.00 0.18 0.00 78 1063.8
20260901183053 63 270 1.7 0.0 0.00 0.18 0.00 78 1063.8
20260901182948 63 270 3.5 0.0 0.00 0.18 0.00 78 1063.9
20260901182841 63 270 6.1 0.0 0.00 0.18 0.00 78 1063.8
20260901182736 63 292 6.1 0.0 0.00 0.18 0.00 78 1063.9
20260901182629 63 270 5.2 0.0 0.00 0.18 0.00 77 1063.9
20260901182516 63 202 2.6 0.0 0.00 0.18 0.00 77 1063.9
20260901182403 63 315 2.6 0.0 0.00 0.18 0.00 77 1063.9
20260901182250 63 270 7.0 0.0 0.00 0.18 0.00 77 1063.9
20260901182137 63 270 0.0 0.0 0.00 0.18 0.00 77 1063.8
20260901182032 63 270 4.3 0.0 0.00 0.18 0.00 76 1063.8
20260901181919 63 270 1.7 0.0 0.00 0.18 0.00 76 1063.8
20260901181806 63 247 2.6 0.0 0.00 0.18 0.00 76 1063.8
20260901181655 63 270 4.3 0.0 0.00 0.18 0.00 76 1063.8
20260901181548 63 292 4.3 0.0 0.00 0.18 0.00 75 1063.8
20260901181435 63 315 4.3 0.0 0.00 0.18 0.00 75 1063.8
20260901181329 63 315 0.0 0.0 0.00 0.18 0.00 75 1063.9
20260901181217 63 292 0.0 0.0 0.00 0.18 0.00 75 1063.8
20260901181114 63 270 0.0 0.0 0.00 0.18 0.00 75 1063.8
20260901181008 63 292 0.0 0.0 0.00 0.18 0.00 74 1063.8
20260901180853 63 292 0.0 0.0 0.00 0.18 0.00 74 1063.9
20260901180740 63 315 0.0 0.0 0.00 0.18 0.00 74 1063.8
20260901180628 63 315 0.0 0.0 0.00 0.18 0.00 74 1063.9
20260901180522 63 337 3.5 0.0 0.00 0.18 0.00 73 1063.8
20260901180401 63 270 4.3 0.0 0.00 0.18 0.00 73 1063.8
20260901180135 63 292 5.2 0.0 0.00 0.18 0.00 73 1063.8
20260901180030 63 292 3.5 0.0 0.00 0.18 0.00 73 1063.8
20260901175908 64 292 0.0 0.0 0.00 0.20 0.00 72 1063.8
20260901175747 64 315 0.9 0.0 0.00 0.20 0.00 73 1063.8
20260901175634 64 315 7.8 0.0 0.00 0.20 0.00 73 1063.8
20260901175520 64 270 7.8 0.0 0.00 0.20 0.00 72 1063.8
20260901175358 64 315 2.6 0.0 0.00 0.20 0.00 72 1063.7
20260901175251 64 315 5.2 0.0 0.00 0.20 0.00 72 1063.8
20260901175140 64 292 5.2 0.0 0.00 0.20 0.00 72 1063.7
20260901175033 64 292 1.7 0.0 0.00 0.20 0.00 73 1063.8
20260901174911 64 337 5.2 0.0 0.00 0.20 0.00 73 1063.8
20260901174806 64 315 0.0 0.0 0.00 0.20 0.00 73 1063.7
20260901174652 64 292 8.7 0.0 0.00 0.20 0.00 73 1063.7
20260901174530 65 315 0.0 0.0 0.00 0.20 0.00 72 1063.7
20260901174424 65 292 0.0 0.0 0.00 0.20 0.00 72 1063.8
20260901174311 65 247 4.3 0.0 0.00 0.20 0.00 72 1063.8
20260901174207 65 292 5.2 0.0 0.00 0.20 0.00 71 1063.7
20260901174100 65 292 5.2 0.0 0.00 0.20 0.00 71 1063.7
20260901173947 65 247 5.2 0.0 0.00 0.20 0.00 71 1063.7
20260901173833 65 292 5.2 0.0 0.00 0.20 0.00 71 1063.7
20260901173712 65 292 7.8 0.0 0.00 0.20 0.00 71 1063.7
20260901173558 65 270 6.1 0.0 0.00 0.20 0.00 72 1063.7
20260901173444 66 247 3.5 0.0 0.00 0.20 0.00 71 1063.7
20260901173333 66 315 0.0 0.0 0.00 0.20 0.00 71 1063.7
20260901173218 66 292 8.7 0.0 0.00 0.20 0.00 71 1063.7
20260901173105 66 270 7.0 0.0 0.00 0.20 0.00 71 1063.7
20260901173000 66 292 7.0 0.0 0.00 0.20 0.00 71 1063.7
20260901172839 66 292 3.5 0.0 0.00 0.20 0.00 71 1063.7
20260901172717 66 337 3.5 0.0 0.00 0.20 0.00 71 1063.7
20260901172604 66 180 3.5 0.0 0.00 0.20 0.00 71 1063.7
20260901172454 66 292 5.2 0.0 0.00 0.20 0.00 72 1063.7
20260901172346 66 292 0.0 0.0 0.00 0.20 0.00 72 1063.7
20260901172236 66 292 7.0 0.0 0.00 0.20 0.00 72 1063.7
20260901172128 66 270 5.2 0.0 0.00 0.20 0.00 73 1063.7
20260901172015 66 315 2.6 0.0 0.00 0.20 0.00 73 1063.7
20260901171856 66 202 4.3 0.0 0.00 0.20 0.00 73 1063.6
20260901171743 65 225 1.7 0.0 0.00 0.20 0.00 73 1063.6
20260901171637 65 292 5.2 0.0 0.00 0.20 0.00 73 1063.6
20260901171529 65 270 5.2 0.0 0.00 0.20 0.00 72 1063.6
20260901171415 65 292 8.7 0.0 0.00 0.20 0.00 72 1063.7
20260901171310 65 270 7.8 0.0 0.00 0.20 0.00 72 1063.6
20260901171134 65 292 11.3 0.0 0.00 0.20 0.00 72 1063.6
20260901171019 65 0 7.0 0.0 0.00 0.20 0.00 72 1063.6
20260901170858 65 0 0.0 0.0 0.00 0.20 0.00 71 1063.6
20260901170742 65 292 6.1 0.0 0.00 0.20 0.00 71 1063.6
20260901170628 65 247 4.3 0.0 0.00 0.20 0.00 71 1063.6
20260901170518 66 315 4.3 0.0 0.00 0.20 0.00 70 1063.5
20260901170410 66 292 5.2 0.0 0.00 0.20 0.00 70 1063.6
20260901170258 66 292 4.3 0.0 0.00 0.20 0.00 70 1063.6
20260901170153 66 270 0.0 0.0 0.00 0.20 0.00 69 1063.6
20260901170039 66 315 5.2 0.0 0.00 0.20 0.00 69 1063.6
20260901165926 66 292 4.3 0.0 0.00 0.33 0.00 69 1063.6
20260901165815 66 270 0.0 0.0 0.00 0.33 0.00 68 1063.6
20260901165708 67 270 5.2 0.0 0.00 0.33 0.00 68 1063.5
20260901165555 67 270 0.0 0.0 0.00 0.33 0.00 68 1063.7
20260901165441 67 315 3.5 0.0 0.00 0.33 0.00 68 1063.6
20260901165320 67 292 7.0 0.0 0.00 0.33 0.00 68 1063.5
20260901165207 67 315 7.0 0.0 0.00 0.33 0.00 68 1063.6
20260901165054 67 270 6.1 0.0 0.00 0.33 0.00 67 1063.6
20260901164949 67 315 3.5 0.0 0.00 0.33 0.00 67 1063.6
20260901164828 67 270 0.0 0.0 0.00 0.33 0.00 66 1063.5
20260901164715 67 292 6.1 0.0 0.00 0.33 0.00 66 1063.5
20260901164602 68 315 6.1 0.0 0.00 0.33 0.00 66 1063.5
20260901164456 68 292 3.5 0.0 0.00 0.33 0.00 66 1063.5
20260901164350 68 315 5.2 0.0 0.00 0.33 0.00 66 1063.5
20260901164238 68 315 4.3 0.0 0.00 0.33 0.00 66 1063.5
20260901164126 68 337 0.0 0.0 0.00 0.33 0.00 67 1063.6
20260901164019 68 315 0.0 0.0 0.00 0.33 0.00 67 1063.5
20260901163906 68 292 4.3 0.0 0.00 0.33 0.00 68 1063.5
20260901163753 68 0 0.0 0.0 0.00 0.33 0.00 67 1063.5
20260901163649 68 315 4.3 0.0 0.00 0.33 0.00 67 1063.6
20260901163545 68 270 5.2 0.0 0.00 0.33 0.00 67 1063.5
20260901163438 68 315 4.3 0.0 0.00 0.33 0.00 67 1063.5
20260901163317 68 315 8.7 0.0 0.00 0.33 0.00 67 1063.5
20260901163204 68 270 11.3 0.0 0.00 0.33 0.00 67 1063.5
20260901163051 68 337 4.3 0.0 0.00 0.33 0.00 67 1063.5
20260901162947 68 292 4.3 0.0 0.00 0.33 0.00 67 1063.5
20260901162840 68 270 10.4 0.0 0.00 0.33 0.00 66 1063.5
20260901162719 68 247 3.5 0.0 0.00 0.33 0.00 66 1063.4
20260901162558 67 202 0.0 0.0 0.00 0.33 0.00 67 1063.4
20260901162437 67 270 4.3 0.0 0.00 0.33 0.00 67 1063.4
20260901162324 67 247 1.7 0.0 0.00 0.33 0.00 66 1063.4
20260901162211 67 315 7.8 0.0 0.00 0.33 0.00 66 1063.5
20260901162107 67 315 3.5 0.0 0.00 0.33 0.00 65 1063.4
20260901162001 67 337 0.0 0.0 0.00 0.33 0.00 65 1063.4
20260901161856 67 270 5.2 0.0 0.00 0.33 0.00 64 1063.5
20260901161752 68 292 0.0 0.0 0.00 0.33 0.00 64 1063.5
20260901161646 68 292 3.5 0.0 0.00 0.33 0.00 64 1063.5
20260901161541 68 292 4.3 0.0 0.00 0.33 0.00 64 1063.5
20260901161436 68 292 3.5 0.0 0.00 0.33 0.00 64 1063.5
20260901161332 68 292 5.2 0.0 0.00 0.33 0.00 64 1063.4
20260901161225 68 315 6.1 0.0 0.00 0.33 0.00 64 1063.4
20260901161056 68 270 10.4 0.0 0.00 0.33 0.00 65 1063.5
20260901160943 68 0 3.5 0.0 0.00 0.33 0.00 66 1063.5
20260901160837 68 292 7.0 0.0 0.00 0.33 0.00 66 1063.5
20260901160730 68 292 7.0 0.0 0.00 0.33 0.00 65 1063.4
20260901160600 68 247 0.0 0.0 0.00 0.33 0.00 65 1063.4
20260901160447 68 270 6.1 0.0 0.00 0.33 0.00 64 1063.4
20260901160341 68 315 3.5 0.0 0.00 0.33 0.00 64 1063.5
20260901160213 69 292 10.4 0.0 0.00 0.33 0.00 64 1063.5
20260901160059 69 337 4.3 0.0 0.00 0.33 0.00 64 1063.5
20260901155954 69 315 0.0 0.0 0.00 0.35 0.00 63 1063.4
20260901155840 69 270 0.0 0.0 0.00 0.35 0.00 62 1063.5
20260901155711 69 315 6.1 0.0 0.00 0.35 0.00 62 1063.4
20260901155550 70 270 5.2 0.0 0.00 0.35 0.00 63 1063.4
20260901155430 70 292 9.6 0.0 0.00 0.35 0.00 63 1063.3
20260901155317 70 270 0.0 0.0 0.00 0.35 0.00 63 1063.3
20260901155154 69 315 4.3 0.0 0.00 0.35 0.00 63 1063.4
20260901155026 70 337 7.0 0.0 0.00 0.35 0.00 62 1063.4
20260901154924 69 270 4.3 0.0 0.00 0.35 0.00 62 1063.4
20260901154816 69 270 8.7 0.0 0.00 0.35 0.00 63 1063.4
20260901154712 69 292 6.1 0.0 0.00 0.35 0.00 63 1063.3
20260901154558 69 315 5.2 0.0 0.00 0.35 0.00 64 1063.4
20260901154444 69 270 5.2 0.0 0.00 0.35 0.00 63 1063.4
20260901154330 69 292 0.0 0.0 0.00 0.35 0.00 63 1063.4
20260901154153 70 337 0.0 0.0 0.00 0.35 0.00 63 1063.3
20260901154032 70 337 5.2 0.0 0.00 0.35 0.00 63 1063.3
20260901153919 70 270 0.0 0.0 0.00 0.35 0.00 63 1063.3
20260901153806 70 270 7.0 0.0 0.00 0.35 0.00 63 1063.4
20260901153653 70 292 6.1 0.0 0.00 0.35 0.00 62 1063.4
20260901153548 70 292 4.3 0.0 0.00 0.35 0.00 62 1063.3
20260901153427 70 315 7.8 0.0 0.00 0.35 0.00 62 1063.3
20260901153322 70 315 4.3 0.0 0.00 0.35 0.00 61 1063.4
20260901153217 70 292 9.6 0.0 0.00 0.35 0.00 62 1063.3
20260901153056 70 292 3.5 0.0 0.00 0.35 0.00 62 1063.3
20260901152950 70 270 4.3 0.0 0.00 0.35 0.00 61 1063.4
20260901152829 71 292 8.7 0.0 0.00 0.35 0.00 61 1063.2
20260901152702 71 270 7.8 0.0 0.00 0.35 0.00 61 1063.2
20260901152546 71 315 7.0 0.0 0.00 0.35 0.00 62 1063.3
20260901152417 71 337 0.0 0.0 0.00 0.35 0.00 62 1063.3
20260901152306 71 292 5.2 0.0 0.00 0.35 0.00 62 1063.3
20260901152159 71 292 1.7 0.0 0.00 0.35 0.00 61 1063.4
20260901152040 71 270 10.4 0.0 0.00 0.35 0.00 61 1063.3
20260901151933 71 0 5.2 0.0 0.00 0.35 0.00 60 1063.3
20260901151819 71 247 9.6 0.0 0.00 0.35 0.00 60 1063.3
20260901151700 71 292 12.2 0.0 0.00 0.35 0.00 60 1063.2
20260901151545 71 292 5.2 0.0 0.00 0.35 0.00 60 1063.2
20260901151425 71 247 11.3 0.0 0.00 0.35 0.00 60 1063.1
20260901151311 71 315 7.0 0.0 0.00 0.35 0.00 60 1063.1
20260901151150 71 292 7.8 0.0 0.00 0.35 0.00 60 1063.2
20260901151037 71 292 7.0 0.0 0.00 0.35 0.00 60 1063.1
20260901150923 71 247 3.5 0.0 0.00 0.35 0.00 61 1063.1
20260901150754 71 292 5.2 0.0 0.00 0.35 0.00 62 1063.1
20260901150641 71 315 0.0 0.0 0.00 0.35 0.00 63 1063.1
20260901150528 71 315 7.0 0.0 0.00 0.35 0.00 62 1063.1
20260901150415 71 292 7.8 0.0 0.00 0.35 0.00 61 1063.1
20260901150255 71 315 5.2 0.0 0.00 0.35 0.00 60 1063.0
20260901150151 71 270 4.3 0.0 0.00 0.35 0.00 60 1063.0
20260901150043 71 315 1.7 0.0 0.00 0.35 0.00 60 1063.0
20260901145923 71 270 3.5 0.0 0.00 0.45 0.00 61 1063.0
20260901145810 71 337 8.7 0.0 0.00 0.45 0.00 61 1063.0
20260901145649 72 315 6.1 0.0 0.00 0.45 0.00 60 1063.0
20260901145522 72 337 11.3 0.0 0.00 0.45 0.00 60 1063.0
20260901145408 72 0 9.6 0.0 0.00 0.45 0.00 61 1063.0
20260901145246 72 292 9.6 0.0 0.00 0.45 0.00 61 1063.0
20260901145127 72 292 5.2 0.0 0.00 0.45 0.00 62 1062.9
20260901145020 72 270 7.0 0.0 0.00 0.45 0.00 62 1063.0
20260901144859 72 315 6.1 0.0 0.00 0.45 0.00 61 1062.9
20260901144756 72 292 2.6 0.0 0.00 0.45 0.00 61 1062.8
20260901144648 72 337 5.2 0.0 0.00 0.45 0.00 61 1062.9
20260901144527 72 315 5.2 0.0 0.00 0.45 0.00 61 1063.0
20260901144414 71 337 4.3 0.0 0.00 0.45 0.00 62 1063.0
20260901144304 71 270 5.2 0.0 0.00 0.45 0.00 62 1062.9
20260901144157 71 270 5.2 0.0 0.00 0.45 0.00 62 1063.0
20260901144051 71 247 1.7 0.0 0.00 0.45 0.00 62 1062.9
20260901143946 71 0 0.0 0.0 0.00 0.45 0.00 61 1062.9
20260901143817 71 315 9.6 0.0 0.00 0.45 0.00 61 1062.9
20260901143704 71 292 13.9 0.0 0.00 0.45 0.00 62 1062.9
20260901143558 71 315 4.3 0.0 0.00 0.45 0.00 62 1062.9
20260901143440 71 270 3.5 0.0 0.00 0.45 0.00 62 1062.9
20260901143334 71 315 11.3 0.0 0.00 0.45 0.00 63 1062.9
20260901143221 71 270 11.3 0.0 0.00 0.45 0.00 64 1063.0
20260901143114 70 270 7.0 0.0 0.00 0.45 0.00 65 1062.9
20260901143001 70 292 9.6 0.0 0.00 0.45 0.00 65 1062.9
20260901142856 70 270 9.6 0.0 0.00 0.45 0.00 65 1062.9
20260901142751 69 270 0.0 0.0 0.00 0.45 0.00 65 1062.9
20260901142645 69 315 5.2 0.0 0.00 0.45 0.00 65 1062.9
20260901142517 69 292 7.8 0.0 0.00 0.45 0.00 65 1062.9
20260901142412 69 315 7.0 0.0 0.00 0.45 0.00 65 1062.9
20260901142301 69 247 13.9 0.0 0.00 0.45 0.00 64 1063.0
20260901142152 70 292 7.0 0.0 0.00 0.45 0.00 63 1062.9
20260901142040 70 292 8.7 0.0 0.00 0.45 0.00 64 1062.9
20260901141918 70 315 8.7 0.0 0.00 0.45 0.00 65 1063.0
20260901141759 69 270 0.0 0.0 0.00 0.45 0.00 65 1062.9
20260901141654 69 337 4.3 0.0 0.00 0.45 0.00 64 1062.7
20260901141547 69 292 4.3 0.0 0.00 0.45 0.00 64 1062.9
20260901141426 69 292 9.6 0.0 0.00 0.45 0.00 64 1062.8
20260901141323 69 247 3.5 0.0 0.00 0.45 0.00 65 1062.9
20260901141218 69 315 5.2 0.0 0.00 0.45 0.00 65 1062.9
20260901141102 69 292 7.8 0.0 0.00 0.45 0.00 64 1062.9
20260901140957 69 315 4.3 0.0 0.00 0.45 0.00 64 1062.9
20260901140846 69 315 7.0 0.0 0.00 0.45 0.00 63 1062.9
20260901140740 69 337 4.3 0.0 0.00 0.45 0.00 63 1062.8
20260901140620 69 315 5.2 0.0 0.00 0.45 0.00 63 1062.9
20260901140515 69 292 9.6 0.0 0.00 0.45 0.00 63 1062.9
20260901140408 69 292 2.6 0.0 0.00 0.45 0.00 63 1062.9
20260901140255 69 135 0.0 0.0 0.00 0.45 0.00 63 1062.8
20260901140150 69 270 7.0 0.0 0.00 0.45 0.00 63 1062.8
20260901140028 70 270 11.3 0.0 0.00 0.45 0.00 62 1062.8
20260901135908 70 292 6.1 0.0 0.00 0.45 0.00 62 1062.9
20260901135802 70 292 7.8 0.0 0.00 0.45 0.00 62 1062.8
20260901135650 70 292 8.7 0.0 0.00 0.45 0.00 62 1062.9
20260901135546 70 315 5.2 0.0 0.00 0.45 0.00 62 1062.9
20260901135441 70 292 10.4 0.0 0.00 0.45 0.00 62 1062.7
20260901135335 70 292 7.0 0.0 0.00 0.45 0.00 63 1062.8
20260901135231 70 270 5.2 0.0 0.00 0.45 0.00 63 1062.9
20260901135126 70 247 4.3 0.0 0.00 0.45 0.00 62 1062.8
20260901135010 69 292 1.7 0.0 0.00 0.45 0.00 62 1062.8
20260901134849 69 292 0.0 0.0 0.00 0.45 0.00 61 1062.8
20260901134720 69 292 10.4 0.0 0.00 0.45 0.00 62 1062.8
20260901134607 69 292 16.5 0.0 0.00 0.45 0.00 62 1062.7
20260901134456 69 292 4.3 0.0 0.00 0.45 0.00 62 1062.7
20260901134352 69 315 8.7 0.0 0.00 0.45 0.00 62 1062.8
20260901134246 69 337 7.8 0.0 0.00 0.45 0.00 61 1062.8
20260901134133 69 292 3.5 0.0 0.00 0.45 0.00 61 1062.7
20260901134018 69 315 15.6 0.0 0.00 0.45 0.00 61 1062.7
20260901133905 69 270 7.0 0.0 0.00 0.45 0.00 61 1062.7
20260901133744 69 315 7.8 0.0 0.00 0.45 0.00 62 1062.7
20260901133630 69 270 13.0 0.0 0.00 0.45 0.00 63 1062.7
20260901133517 69 270 6.1 0.0 0.00 0.45 0.00 63 1062.6
20260901133413 69 337 4.3 0.0 0.00 0.45 0.00 62 1062.6
20260901133307 69 292 6.1 0.0 0.00 0.45 0.00 63 1062.8
20260901133154 69 270 5.2 0.0 0.00 0.45 0.00 63 1062.6
20260901133043 69 315 3.5 0.0 0.00 0.45 0.00 63 1062.6
20260901132928 69 0 5.2 0.0 0.00 0.45 0.00 63 1062.6
20260901132815 69 270 7.8 0.0 0.00 0.45 0.00 63 1062.7
20260901132653 69 247 13.0 0.0 0.00 0.45 0.00 63 1062.6
20260901132531 69 270 5.2 0.0 0.00 0.45 0.00 63 1062.7
20260901132410 70 292 7.0 0.0 0.00 0.45 0.00 63 1062.7
20260901132250 70 247 7.0 0.0 0.00 0.45 0.00 63 1062.7
20260901132145 70 247 10.4 0.0 0.00 0.45 0.00 63 1062.7
20260901132025 69 292 5.2 0.0 0.00 0.45 0.00 64 1062.6
20260901131910 69 270 4.3 0.0 0.00 0.45 0.00 64 1062.6
20260901131757 69 292 7.8 0.0 0.00 0.45 0.00 64 1062.6
20260901131638 69 292 6.1 0.0 0.00 0.45 0.00 65 1062.7
20260901131533 69 270 0.0 0.0 0.00 0.45 0.00 65 1062.6
20260901131426 69 0 0.0 0.0 0.00 0.45 0.00 64 1062.6
20260901131306 69 292 3.5 0.0 0.00 0.45 0.00 65 1062.7
20260901131200 69 315 8.7 0.0 0.00 0.45 0.00 65 1062.7
20260901131055 69 315 4.3 0.0 0.00 0.45 0.00 65 1062.7
20260901130942 69 292 8.7 0.0 0.00 0.45 0.00 65 1062.6
20260901130830 69 270 5.2 0.0 0.00 0.45 0.00 64 1062.6
20260901130726 69 270 0.0 0.0 0.00 0.45 0.00 64 1062.5
20260901130610 69 0 3.5 0.0 0.00 0.45 0.00 64 1062.6
20260901130456 70 292 13.9 0.0 0.00 0.45 0.00 63 1062.6
20260901130345 70 270 9.6 0.0 0.00 0.45 0.00 63 1062.6
20260901130230 70 315 11.3 0.0 0.00 0.45 0.00 62 1062.6
20260901130109 70 292 6.1 0.0 0.00 0.45 0.00 61 1062.5
20260901125956 70 337 0.0 0.0 0.00 0.45 0.00 61 1062.5
20260901125843 70 315 4.3 0.0 0.00 0.45 0.00 61 1062.6
20260901125722 70 315 9.6 0.0 0.00 0.45 0.00 62 1062.5
20260901125553 70 315 12.2 0.0 0.00 0.45 0.00 62 1062.6
20260901125441 70 292 8.7 0.0 0.00 0.45 0.00 63 1062.5
20260901125312 70 315 5.2 0.0 0.00 0.45 0.00 62 1062.6
20260901125152 70 315 2.6 0.0 0.00 0.45 0.00 62 1062.5
20260901125037 70 270 7.0 0.0 0.00 0.45 0.00 62 1062.5
20260901124915 71 225 5.2 0.0 0.00 0.45 0.00 62 1062.5
20260901124755 71 292 4.3 0.0 0.00 0.45 0.00 61 1062.6
20260901124648 71 292 10.4 0.0 0.00 0.45 0.00 61 1062.5
20260901124528 71 315 7.8 0.0 0.00 0.45 0.00 60 1062.5
20260901124421 71 292 3.5 0.0 0.00 0.45 0.00 60 1062.5
20260901124302 71 0 9.6 0.0 0.00 0.45 0.00 60 1062.4
20260901124155 71 292 9.6 0.0 0.00 0.45 0.00 60 1062.5
20260901124043 71 315 9.6 0.0 0.00 0.45 0.00 60 1062.5
20260901123930 71 315 3.5 0.0 0.00 0.45 0.00 59 1062.5
20260901123825 71 337 2.6 0.0 0.00 0.45 0.00 58 1062.6
20260901123711 71 292 7.0 0.0 0.00 0.45 0.00 58 1062.5
20260901123558 71 315 11.3 0.0 0.00 0.45 0.00 58 1062.6
20260901123445 72 292 5.2 0.0 0.00 0.45 0.00 59 1062.5
20260901123332 72 270 10.4 0.0 0.00 0.45 0.00 60 1062.5
20260901123218 72 292 8.7 0.0 0.00 0.45 0.00 59 1062.5
20260901123107 72 292 6.1 0.0 0.00 0.45 0.00 59 1062.6
20260901123001 72 292 2.6 0.0 0.00 0.45 0.00 58 1062.5
20260901122839 72 247 10.4 0.0 0.00 0.45 0.00 58 1062.5
20260901122720 72 292 3.5 0.0 0.00 0.45 0.00 57 1062.5
20260901122608 72 247 8.7 0.0 0.00 0.45 0.00 58 1062.5
20260901122500 72 270 6.1 0.0 0.00 0.45 0.00 57 1062.5
20260901122347 72 315 5.2 0.0 0.00 0.45 0.00 56 1062.6
20260901122241 72 337 5.2 0.0 0.00 0.45 0.00 56 1062.6
20260901122115 72 315 13.0 0.0 0.00 0.45 0.00 57 1062.5
20260901122007 72 292 11.3 0.0 0.00 0.45 0.00 56 1062.6
20260901121841 73 270 13.0 0.0 0.00 0.45 0.00 56 1062.5
20260901121735 73 315 4.3 0.0 0.00 0.45 0.00 56 1062.6
20260901121629 73 292 9.6 0.0 0.00 0.45 0.00 57 1062.5
20260901121524 73 292 7.0 0.0 0.00 0.45 0.00 57 1062.6
20260901121410 73 292 0.0 0.0 0.00 0.45 0.00 58 1062.5
20260901121257 73 247 6.1 0.0 0.00 0.45 0.00 57 1062.5
20260901121152 73 247 7.8 0.0 0.00 0.45 0.00 58 1062.5
20260901121039 73 0 4.3 0.0 0.00 0.45 0.00 59 1062.5
20260901120918 73 292 6.1 0.0 0.00 0.45 0.00 60 1062.5
20260901120759 73 270 5.2 0.0 0.00 0.45 0.00 61 1062.5
20260901120654 73 270 5.2 0.0 0.00 0.45 0.00 61 1062.5
20260901120543 73 292 3.5 0.0 0.00 0.45 0.00 61 1062.5
20260901120437 73 292 5.2 0.0 0.00 0.45 0.00 61 1062.5
20260901120326 72 247 11.3 0.0 0.00 0.45 0.00 62 1062.5
20260901120218 72 315 7.8 0.0 0.00 0.45 0.00 62 1062.5
20260901120103 72 292 7.8 0.0 0.00 0.45 0.00 62 1062.5
20260901115935 72 315 4.3 0.0 0.00 0.45 0.00 62 1062.4
20260901115813 72 337 6.1 0.0 0.00 0.45 0.00 62 1062.6
20260901115653 72 270 1.7 0.0 0.00 0.45 0.00 63 1062.5
20260901115540 72 337 4.3 0.0 0.00 0.45 0.00 63 1062.4
20260901115436 72 292 4.3 0.0 0.00 0.45 0.00 63 1062.4
20260901115330 72 270 13.0 0.0 0.00 0.45 0.00 62 1062.4
20260901115210 72 315 5.2 0.0 0.00 0.45 0.00 62 1062.4
20260901115104 72 315 5.2 0.0 0.00 0.45 0.00 62 1062.5
20260901114951 72 337 5.2 0.0 0.00 0.45 0.00 62 1062.5
20260901114838 72 292 7.8 0.0 0.00 0.45 0.00 62 1062.5
20260901114732 72 337 10.4 0.0 0.00 0.45 0.00 62 1062.4
20260901114618 72 292 5.2 0.0 0.00 0.45 0.00 62 1062.4
20260901114458 72 315 7.0 0.0 0.00 0.45 0.00 63 1062.4
20260901114336 72 292 6.1 0.0 0.00 0.45 0.00 63 1062.3
20260901114225 72 315 3.5 0.0 0.00 0.45 0.00 64 1062.3
20260901114118 72 337 6.1 0.0 0.00 0.45 0.00 66 1062.4
20260901113958 71 0 2.6 0.0 0.00 0.45 0.00 65 1062.3
20260901113853 71 270 3.5 0.0 0.00 0.45 0.00 65 1062.4
20260901113732 71 315 10.4 0.0 0.00 0.45 0.00 65 1062.4
20260901113617 71 315 4.3 0.0 0.00 0.45 0.00 65 1062.4
20260901113503 71 0 3.5 0.0 0.00 0.45 0.00 65 1062.4
20260901113344 71 292 5.2 0.0 0.00 0.45 0.00 66 1062.4
20260901113237 71 270 11.3 0.0 0.00 0.45 0.00 68 1062.4
20260901113051 69 337 99.1 0.0 0.00 0.45 0.00 70 1062.4
20260901112439 69 337 2.6 0.0 0.00 0.45 0.00 70 1062.3
20260901112333 69 315 6.1 0.0 0.00 0.45 0.00 70 1062.2
20260901112211 68 337 3.5 0.0 0.00 0.45 0.00 70 1062.2
20260901112058 69 292 3.5 0.0 0.00 0.45 0.00 70 1062.2
20260901111953 68 337 5.2 0.0 0.00 0.45 0.00 71 1062.1
20260901111743 67 247 99.1 0.0 0.00 0.45 0.00 74 1062.1
20260901111129 67 247 99.1 0.0 0.02 0.45 0.00 75 1062.1
20260901110526 67 247 99.1 0.0 0.02 0.45 0.00 78 1062.0
20260901105902 66 247 99.1 0.0 0.02 0.45 0.00 81 1062.0
20260901105247 65 247 99.1 0.0 0.02 0.45 0.00 83 1061.9
20260901104601 64 247 99.1 0.0 0.04 0.45 0.00 86 1061.8
20260901103931 63 247 99.1 0.0 0.06 0.45 0.00 88 1061.9
20260901103317 62 247 99.1 0.0 0.06 0.45 0.00 90 1061.8
20260901102658 62 247 99.1 0.0 0.08 0.45 0.00 91 1061.7
20260901102049 61 247 99.1 0.0 0.08 0.45 0.00 91 1061.7
20260901101428 61 247 5.2 0.0 0.06 0.43 0.00 91 1061.6
20260901101322 61 202 4.3 0.0 0.06 0.43 0.00 91 1061.5
20260901101145 61 292 7.8 0.0 0.06 0.43 0.00 91 1061.5
20260901100959 61 270 4.3 0.0 0.06 0.43 0.00 91 1061.5
20260901100852 61 247 5.2 0.0 0.06 0.43 0.00 91 1061.5
20260901100738 61 270 7.8 0.0 0.06 0.43 0.00 91 1061.5
20260901100617 61 225 2.6 0.0 0.06 0.43 0.00 91 1061.5
20260901100505 61 292 3.5 0.0 0.06 0.43 0.00 91 1061.5
20260901100357 61 315 12.2 0.0 0.06 0.43 0.00 90 1061.5
20260901100246 61 225 12.2 0.0 0.06 0.43 0.00 90 1061.5
20260901100139 61 270 11.3 0.0 0.06 0.43 0.00 90 1061.5
20260901100025 61 247 0.9 0.0 0.06 0.43 0.00 90 1061.5
20260901095913 61 247 3.5 0.0 0.06 0.43 0.00 91 1061.5
20260901095759 61 247 8.7 0.0 0.06 0.43 0.00 91 1061.5
20260901095652 61 270 8.7 0.0 0.06 0.43 0.00 91 1061.5
20260901095523 61 247 7.8 0.0 0.06 0.43 0.00 90 1061.5
20260901095411 61 247 10.4 0.0 0.06 0.43 0.00 90 1061.4
20260901095306 61 247 13.0 0.0 0.06 0.43 0.00 90 1061.5
20260901095159 61 292 5.2 0.0 0.06 0.43 0.00 90 1061.4
20260901095053 61 292 5.2 0.0 0.04 0.41 0.00 90 1061.4
20260901094947 62 270 11.3 0.0 0.04 0.41 0.00 90 1061.5
20260901094827 62 337 7.0 0.0 0.04 0.41 0.00 90 1061.4
20260901094720 62 270 9.6 0.0 0.04 0.41 0.00 90 1061.3
20260901094606 62 225 5.2 0.0 0.04 0.41 0.00 90 1061.4
20260901094453 62 292 7.0 0.0 0.04 0.41 0.00 90 1061.3
20260901094342 62 247 6.1 0.0 0.02 0.39 0.00 89 1061.3
20260901094230 62 270 9.6 0.0 0.02 0.39 0.00 89 1061.3
20260901094104 62 292 11.3 0.0 0.02 0.39 0.00 89 1061.4
20260901093950 62 292 10.4 0.0 0.02 0.39 0.00 89 1061.4
20260901093838 62 247 4.3 0.0 0.02 0.39 0.00 88 1061.3
20260901093725 62 225 5.2 0.0 0.02 0.39 0.00 88 1061.3
20260901093612 62 247 4.3 0.0 0.02 0.39 0.00 88 1061.3
20260901093506 62 157 0.0 0.0 0.00 0.37 0.00 87 1061.4
20260901093346 62 270 4.3 0.0 0.00 0.37 0.00 87 1061.3
20260901093241 62 247 9.6 0.0 0.00 0.37 0.00 87 1061.3
20260901093135 62 270 7.8 0.0 0.00 0.37 0.00 87 1061.4
20260901093022 63 247 5.2 0.0 0.00 0.37 0.00 86 1061.4
20260901092902 63 270 8.7 0.0 0.00 0.37 0.00 86 1061.4
20260901092740 63 247 7.0 0.0 0.00 0.37 0.00 85 1061.4
20260901092618 63 270 5.2 0.0 0.00 0.37 0.00 84 1061.4
20260901092449 64 270 4.3 0.0 0.00 0.37 0.00 82 1061.4
20260901092328 64 315 5.2 0.0 0.00 0.37 0.00 82 1061.5
20260901092216 64 270 5.2 0.0 0.00 0.37 0.00 81 1061.4
20260901092100 65 292 4.3 0.0 0.00 0.37 0.00 80 1061.5
20260901091954 65 315 5.2 0.0 0.00 0.37 0.00 79 1061.5
20260901091848 66 315 7.8 0.0 0.00 0.37 0.00 78 1061.4
20260901091719 66 135 0.0 0.0 0.00 0.37 0.00 77 1061.3
20260901091614 67 315 7.8 0.0 0.00 0.37 0.00 76 1061.3
20260901091500 67 292 7.8 0.0 0.00 0.37 0.00 75 1061.3
20260901091333 67 270 13.0 0.0 0.00 0.37 0.00 74 1061.3
20260901091226 68 292 8.7 0.0 0.00 0.37 0.00 72 1061.3
20260901091113 69 292 16.5 0.0 0.00 0.37 0.00 71 1061.3
20260901091001 69 247 15.6 0.0 0.00 0.37 0.00 71 1061.3
20260901090856 69 292 4.3 0.0 0.00 0.37 0.00 71 1061.2
20260901090749 70 270 7.8 0.0 0.00 0.37 0.00 71 1061.3
20260901090636 70 292 6.1 0.0 0.00 0.37 0.00 71 1061.2
20260901090524 71 292 12.2 0.0 0.00 0.37 0.00 70 1061.2
20260901090417 71 292 5.2 0.0 0.00 0.37 0.00 70 1061.2
20260901090248 71 292 4.3 0.0 0.00 0.37 0.00 70 1061.2
20260901090137 72 247 11.3 0.0 0.00 0.37 0.00 69 1061.2
20260901090029 72 292 9.6 0.0 0.00 0.37 0.00 68 1061.2
20260901085908 73 247 9.6 0.0 0.00 0.37 0.00 68 1061.3
20260901085757 73 270 3.5 0.0 0.00 0.37 0.00 67 1061.2
20260901085650 74 270 17.4 0.0 0.00 0.37 0.00 66 1061.2
20260901085531 74 292 12.2 0.0 0.02 0.37 0.00 66 1061.2
20260901085425 74 292 18.2 0.0 0.02 0.37 0.00 67 1061.1
20260901085320 73 292 6.1 0.0 0.02 0.37 0.00 68 1061.1
20260901085214 73 292 8.7 0.0 0.02 0.37 0.00 69 1061.1
20260901085045 72 270 10.4 0.0 0.02 0.37 0.00 71 1061.0
20260901084924 71 292 18.2 0.0 0.02 0.37 0.00 72 1061.1
20260901084803 71 315 13.0 0.0 0.02 0.37 0.00 74 1061.1
20260901084658 70 292 3.5 0.0 0.02 0.37 0.00 75 1061.1
20260901084545 69 292 15.6 0.0 0.02 0.37 0.00 77 1060.9
20260901084439 68 337 11.3 0.0 0.02 0.37 0.00 78 1061.0
20260901084325 67 247 7.8 0.0 0.02 0.37 0.00 78 1061.0
20260901084212 67 247 7.8 0.0 0.02 0.37 0.00 78 1060.9
20260901084059 67 247 11.3 0.0 0.02 0.37 0.00 78 1061.0
20260901083945 67 270 4.3 0.0 0.02 0.37 0.00 77 1061.0
20260901083832 67 225 5.2 0.0 0.02 0.37 0.00 77 1061.0
20260901083703 67 315 7.0 0.0 0.02 0.37 0.00 77 1060.9
20260901083552 68 270 5.2 0.0 0.02 0.37 0.00 77 1060.9
20260901083446 68 270 5.2 0.0 0.02 0.37 0.00 77 1060.8
20260901083343 68 292 8.7 0.0 0.02 0.37 0.00 78 1060.9
20260901083221 68 225 6.1 0.0 0.02 0.37 0.00 79 1060.8
20260901083106 69 270 6.1 0.0 0.02 0.37 0.00 78 1060.9
20260901082937 69 270 11.3 0.0 0.02 0.37 0.00 78 1060.7
20260901082821 69 270 7.8 0.0 0.02 0.37 0.00 78 1060.7
20260901082707 68 247 12.2 0.0 0.02 0.37 0.00 78 1060.6
20260901082554 68 270 12.2 0.0 0.02 0.37 0.00 79 1060.7
20260901082449 68 292 7.0 0.0 0.02 0.37 0.00 79 1060.7
20260901082333 68 247 7.0 0.0 0.02 0.37 0.00 81 1060.7
20260901082221 68 247 8.7 0.0 0.02 0.37 0.00 81 1060.6
20260901082115 68 247 7.0 0.0 0.02 0.37 0.00 81 1060.6
20260901082002 68 292 13.9 0.0 0.02 0.37 0.00 81 1060.7
20260901081849 68 292 11.3 0.0 0.02 0.37 0.00 81 1060.7
20260901081738 68 270 10.4 0.0 0.02 0.37 0.00 81 1060.7
20260901081631 68 270 5.2 0.0 0.02 0.37 0.00 81 1060.6
20260901081518 68 315 7.8 0.0 0.02 0.37 0.00 81 1060.6
20260901081413 68 270 11.3 0.0 0.02 0.37 0.00 81 1060.6
20260901081300 67 270 5.2 0.0 0.02 0.37 0.00 82 1060.6
20260901081147 67 292 5.2 0.0 0.02 0.37 0.00 82 1060.6
20260901081034 67 225 7.8 0.0 0.02 0.37 0.00 82 1060.6
20260901080921 67 270 4.3 0.0 0.02 0.37 0.00 82 1060.6
20260901080816 67 270 1.7 0.0 0.02 0.37 0.00 82 1060.5
20260901080711 67 247 3.5 0.0 0.02 0.37 0.00 82 1060.5
20260901080605 67 270 5.2 0.0 0.02 0.37 0.00 82 1060.5
20260901080452 67 270 7.8 0.0 0.02 0.37 0.00 82 1060.5
20260901080339 67 292 4.3 0.0 0.02 0.37 0.00 82 1060.5
20260901080234 67 270 5.2 0.0 0.02 0.37 0.00 82 1060.5
20260901080121 67 270 6.1 0.0 0.02 0.37 0.00 82 1060.5
20260901080008 67 247 5.2 0.0 0.02 0.37 0.00 81 1060.5
20260901075854 68 270 1.7 0.0 0.02 0.37 0.00 81 1060.5
20260901075733 68 247 2.6 0.0 0.02 0.37 0.00 81 1060.5
20260901075621 68 247 7.8 0.0 0.00 0.35 0.00 81 1060.5
20260901075459 68 247 9.6 0.0 0.00 0.35 0.00 81 1060.5
20260901075338 68 292 7.0 0.0 0.00 0.35 0.00 81 1060.5
20260901075233 68 247 7.0 0.0 0.00 0.35 0.00 83 1060.5
20260901075120 68 270 4.3 0.0 0.00 0.35 0.00 83 1060.5
20260901075009 68 292 3.5 0.0 0.00 0.35 0.00 83 1060.4
20260901074903 67 292 0.0 0.0 0.00 0.35 0.00 83 1060.5
20260901074756 67 247 5.2 0.0 0.00 0.35 0.00 83 1060.5
20260901074646 67 270 9.6 0.0 0.00 0.35 0.00 84 1060.5
20260901074539 67 247 6.1 0.0 0.00 0.35 0.00 84 1060.5
20260901074426 67 292 4.3 0.0 0.00 0.35 0.00 84 1060.4
20260901074319 66 247 4.3 0.0 0.00 0.35 0.00 84 1060.5
20260901074020 66 270 4.3 0.0 0.00 0.35 0.00 84 1060.4
20260901073909 66 270 7.0 0.0 0.00 0.35 0.00 85 1060.4
20260901073802 66 247 7.0 0.0 0.00 0.35 0.00 85 1060.4
20260901073633 66 270 5.2 0.0 0.00 0.35 0.00 84 1060.4
20260901073422 66 270 6.1 0.0 0.00 0.35 0.00 84 1060.3
20260901073301 66 247 5.2 0.0 0.00 0.35 0.00 84 1060.4
20260901072753 66 292 99.1 0.0 0.00 0.35 0.00 81 1060.3
20260901072123 67 292 99.1 0.0 0.00 0.35 0.00 79 1060.2
20260901071507 67 270 8.7 0.0 0.00 0.35 0.00 79 1060.2
20260901071337 67 270 3.5 0.0 0.00 0.35 0.00 78 1060.2
20260901071216 68 270 3.5 0.0 0.00 0.35 0.00 78 1060.2
20260901071103 68 270 3.5 0.0 0.00 0.35 0.00 77 1060.3
20260901070949 69 292 5.2 0.0 0.00 0.35 0.00 76 1060.2
20260901070821 69 270 5.2 0.0 0.00 0.35 0.00 76 1060.2
20260901070717 69 270 4.3 0.0 0.00 0.35 0.00 76 1060.2
20260901070610 70 225 0.0 0.0 0.00 0.35 0.00 76 1060.2
20260901070449 70 270 5.2 0.0 0.00 0.35 0.00 77 1060.2
20260901070238 68 247 99.1 0.0 0.00 0.35 0.00 82 1060.3
20260901065608 66 247 99.1 0.0 0.00 0.37 0.00 84 1060.2
20260901064938 67 247 99.1 0.0 0.00 0.37 0.00 83 1060.2
20260901064308 67 247 99.1 0.0 0.00 0.37 0.00 83 1060.2
20260901063702 68 247 99.1 0.0 0.00 0.37 0.00 83 1060.1
20260901063024 68 247 99.1 0.0 0.00 0.37 0.00 85 1060.1
20260901062354 68 247 99.1 0.0 0.00 0.37 0.00 85 1060.1
20260901061751 67 247 99.1 0.0 0.00 0.37 0.00 90 1060.0
20260901061135 65 247 99.1 0.0 0.00 0.37 0.00 93 1059.9
20260901060519 62 247 99.1 0.0 0.02 0.37 0.00 93 1059.8
20260901055841 62 247 99.1 0.0 0.02 0.37 0.00 93 1059.9
20260901055211 62 247 99.1 0.0 0.02 0.37 0.00 93 1059.8
20260901054549 62 247 99.1 0.0 0.02 0.37 0.00 93 1059.7
20260901053912 62 247 99.1 0.0 0.02 0.37 0.00 92 1059.7
20260901053241 62 247 99.1 0.0 0.02 0.37 0.00 92 1059.6
20260901052612 62 247 99.1 0.0 0.02 0.37 0.00 92 1059.6
20260901051942 62 247 99.1 0.0 0.02 0.37 0.00 92 1059.4
20260901051311 62 247 99.1 0.0 0.02 0.37 0.00 92 1059.4
20260901050645 62 247 99.1 0.0 0.00 0.35 0.00 92 1059.4
20260901050044 62 247 99.1 0.0 0.00 0.35 0.00 92 1059.4
20260901045439 61 247 5.2 0.0 0.00 0.35 0.00 92 1059.3
20260901045319 61 270 0.9 0.0 0.00 0.35 0.00 91 1059.3
20260901045214 61 247 4.3 0.0 0.00 0.35 0.00 91 1059.2
20260901045108 61 270 6.1 0.0 0.00 0.35 0.00 91 1059.3
20260901044959 61 225 3.5 0.0 0.00 0.35 0.00 91 1059.2
20260901044845 61 247 5.2 0.0 0.00 0.35 0.00 91 1059.2
20260901044738 61 270 4.3 0.0 0.00 0.35 0.00 91 1059.2
20260901044624 61 270 5.2 0.0 0.00 0.35 0.00 91 1059.2
20260901044502 61 270 6.1 0.0 0.00 0.35 0.00 91 1059.3
20260901044347 61 270 3.5 0.0 0.00 0.35 0.00 91 1059.3
20260901044234 61 270 0.0 0.0 0.00 0.35 0.00 91 1059.4
20260901044129 61 270 2.6 0.0 0.00 0.35 0.00 91 1059.3
20260901044020 61 247 0.9 0.0 0.00 0.35 0.00 91 1059.3
20260901043859 61 225 2.6 0.0 0.00 0.35 0.00 91 1059.2
20260901043743 61 270 4.3 0.0 0.00 0.35 0.00 91 1059.3
20260901043623 61 247 1.7 0.0 0.00 0.35 0.00 91 1059.2
20260901043511 61 247 1.7 0.0 0.00 0.35 0.00 91 1059.3
20260901043403 61 225 1.7 0.0 0.00 0.35 0.00 90 1059.2
20260901043250 62 247 0.0 0.0 0.00 0.35 0.00 90 1059.2
20260901043147 61 270 0.9 0.0 0.00 0.35 0.00 90 1059.3
20260901043038 62 270 3.5 0.0 0.00 0.35 0.00 90 1059.3
20260901042916 62 270 3.5 0.0 0.00 0.35 0.00 90 1059.2
20260901042754 62 247 0.0 0.0 0.00 0.35 0.00 90 1059.2
20260901042633 62 270 2.6 0.0 0.00 0.35 0.00 89 1059.2
20260901042512 62 270 0.9 0.0 0.00 0.35 0.00 89 1059.2
20260901042351 62 247 3.5 0.0 0.00 0.35 0.00 89 1059.1
20260901042237 62 202 0.0 0.0 0.00 0.35 0.00 89 1059.2
20260901042124 62 247 0.0 0.0 0.00 0.35 0.00 89 1059.2
20260901042011 62 225 2.6 0.0 0.00 0.35 0.00 89 1059.2
20260901041852 62 202 4.3 0.0 0.00 0.35 0.00 89 1059.2
20260901041745 62 202 0.0 0.0 0.00 0.35 0.00 89 1059.2
20260901041632 62 225 0.0 0.0 0.00 0.35 0.00 88 1059.1
20260901041510 62 225 0.0 0.0 0.00 0.35 0.00 88 1059.2
20260901041350 62 247 0.0 0.0 0.00 0.35 0.00 88 1059.2
20260901041244 62 247 0.0 0.0 0.00 0.35 0.00 88 1059.1
20260901041130 62 247 0.0 0.0 0.00 0.35 0.00 88 1059.2
20260901041011 62 270 1.7 0.0 0.00 0.35 0.00 88 1059.2
20260901040904 62 247 4.3 0.0 0.00 0.35 0.00 88 1059.2
20260901040755 62 247 2.6 0.0 0.00 0.35 0.00 88 1059.2
20260901040630 62 270 6.1 0.0 0.00 0.35 0.00 88 1059.2
20260901040508 63 292 2.6 0.0 0.00 0.35 0.00 87 1059.2
20260901040340 63 225 1.7 0.0 0.00 0.35 0.00 87 1059.2
20260901040219 63 292 1.7 0.0 0.00 0.35 0.00 87 1059.1
20260901040106 62 292 5.2 0.0 0.00 0.35 0.00 86 1059.1
20260901035953 62 247 1.7 0.0 0.00 0.35 0.00 86 1059.1
20260901035839 62 247 7.0 0.0 0.00 0.35 0.00 85 1059.0
20260901035718 62 270 5.2 0.0 0.00 0.35 0.00 85 1059.0
20260901035603 62 270 6.1 0.0 0.00 0.35 0.00 86 1059.0
20260901035448 62 292 0.0 0.0 0.00 0.35 0.00 86 1059.0
20260901035320 63 315 3.5 0.0 0.00 0.35 0.00 86 1059.0
20260901035207 63 292 4.3 0.0 0.00 0.35 0.00 86 1059.0
20260901035102 63 270 2.6 0.0 0.00 0.35 0.00 87 1058.9
20260901034941 63 270 0.0 0.0 0.00 0.35 0.00 87 1058.9
20260901034829 63 292 4.3 0.0 0.00 0.35 0.00 87 1059.0
20260901034700 63 292 2.6 0.0 0.00 0.35 0.00 87 1059.0
20260901034539 63 270 4.3 0.0 0.00 0.35 0.00 87 1059.0
20260901034416 63 270 0.9 0.0 0.00 0.35 0.00 87 1059.0
20260901034311 63 315 3.5 0.0 0.00 0.35 0.00 87 1059.0
20260901034157 63 270 1.7 0.0 0.00 0.35 0.00 87 1059.0
20260901034044 63 270 3.5 0.0 0.00 0.35 0.00 87 1058.9
20260901033917 63 270 0.0 0.0 0.00 0.35 0.00 87 1059.0
20260901033812 63 270 4.3 0.0 0.00 0.35 0.00 86 1059.0
20260901033704 64 270 5.2 0.0 0.00 0.35 0.00 86 1059.0
20260901033552 64 270 3.5 0.0 0.00 0.35 0.00 86 1059.0
20260901033438 64 270 4.3 0.0 0.00 0.35 0.00 86 1059.0
20260901033317 64 270 0.0 0.0 0.00 0.35 0.00 86 1059.0
20260901033205 64 292 3.5 0.0 0.00 0.35 0.00 85 1059.0
20260901033057 64 292 5.2 0.0 0.00 0.35 0.00 85 1059.0
20260901032952 64 292 5.2 0.0 0.00 0.35 0.00 85 1059.0
20260901032845 64 292 5.2 0.0 0.00 0.35 0.00 85 1059.0
20260901032716 64 292 5.2 0.0 0.00 0.35 0.00 85 1058.9
20260901032603 64 315 0.0 0.0 0.00 0.35 0.00 85 1058.9
20260901032456 63 315 4.3 0.0 0.00 0.35 0.00 85 1058.9
20260901032335 64 292 2.6 0.0 0.00 0.35 0.00 85 1059.0
20260901032223 64 292 5.2 0.0 0.00 0.35 0.00 85 1058.9
20260901032116 64 292 6.1 0.0 0.00 0.35 0.00 85 1058.9
20260901032003 64 247 0.0 0.0 0.00 0.35 0.00 85 1058.9
20260901031850 64 270 1.7 0.0 0.00 0.35 0.00 85 1058.9
20260901031736 64 337 5.2 0.0 0.00 0.35 0.00 85 1058.9
20260901031623 64 270 4.3 0.0 0.00 0.35 0.00 86 1058.8
20260901031509 64 292 5.2 0.0 0.00 0.35 0.00 86 1058.8
20260901031403 64 0 5.2 0.0 0.00 0.35 0.00 85 1058.9
20260901031256 64 247 2.6 0.0 0.00 0.35 0.00 85 1058.9
20260901031143 64 292 0.0 0.0 0.00 0.35 0.00 85 1058.8
20260901031021 64 270 2.6 0.0 0.00 0.35 0.00 85 1058.8
20260901030908 64 315 1.7 0.0 0.00 0.35 0.00 85 1058.8
20260901030802 64 315 5.2 0.0 0.00 0.35 0.00 85 1058.8
20260901030657 64 337 2.6 0.0 0.00 0.35 0.00 85 1058.8
20260901030543 64 315 1.7 0.0 0.00 0.35 0.00 85 1058.8
20260901030431 64 315 3.5 0.0 0.00 0.35 0.00 85 1058.8
20260901030326 64 292 2.6 0.0 0.00 0.35 0.00 85 1058.8
20260901030211 64 337 4.3 0.0 0.00 0.35 0.00 85 1058.7
20260901030058 64 292 3.5 0.0 0.00 0.35 0.00 85 1058.8
20260901025953 63 292 2.6 0.0 0.00 0.35 0.00 85 1058.8
20260901025847 63 292 7.8 0.0 0.00 0.35 0.00 85 1058.7
20260901025742 63 337 4.3 0.0 0.00 0.35 0.00 85 1058.8
20260901025621 63 292 1.7 0.0 0.00 0.35 0.00 85 1058.8
20260901025508 63 247 4.3 0.0 0.00 0.35 0.00 85 1058.9
20260901025354 63 247 5.2 0.0 0.00 0.35 0.00 86 1058.9
20260901025241 63 315 7.0 0.0 0.00 0.35 0.00 86 1058.9
20260901025119 63 315 7.8 0.0 0.00 0.35 0.00 86 1058.9
20260901025006 63 315 7.0 0.0 0.00 0.35 0.00 86 1058.9
20260901024844 63 292 6.1 0.0 0.00 0.35 0.00 86 1058.8
20260901024726 63 337 3.5 0.0 0.00 0.35 0.00 86 1058.9
20260901024619 63 315 3.5 0.0 0.00 0.35 0.00 86 1058.8
20260901024505 63 337 6.1 0.0 0.00 0.35 0.00 86 1058.8
20260901024344 63 292 2.6 0.0 0.00 0.35 0.00 85 1058.9
20260901024231 63 315 6.1 0.0 0.00 0.35 0.00 85 1058.9
20260901024127 63 315 2.6 0.0 0.00 0.35 0.00 85 1058.8
20260901024013 63 270 6.1 0.0 0.00 0.35 0.00 85 1058.8
20260901023901 63 270 7.0 0.0 0.00 0.35 0.00 85 1058.9
20260901023755 63 247 5.2 0.0 0.00 0.35 0.00 85 1058.9
20260901023633 63 315 5.2 0.0 0.00 0.35 0.00 84 1058.8
20260901023527 63 315 5.2 0.0 0.00 0.35 0.00 84 1058.8
20260901023421 63 337 3.5 0.0 0.00 0.35 0.00 84 1058.8
20260901023315 63 292 7.0 0.0 0.00 0.35 0.00 84 1058.9
20260901023209 63 270 1.7 0.0 0.00 0.35 0.00 84 1058.9
20260901023021 63 315 99.1 0.0 0.00 0.35 0.00 84 1058.7